Regional Weather Roundup
Issued by NWS

Home | Current Version | Previous Version | Text Only | Print | Product List | Glossary On
Versions: 1 2 3 4 5 6 7 8 9 10 11 12 13 14 15 16 17 18 19 20 21 22 23 24 25 26 27 28 29 30 31 32 33 34 35 36 37 38 39 40 41 42 43 44 45 46 47 48 49 50
000
ASUS43 KIND 302109
RWRIN

WEATHER ROUNDUP FOR INDIANA
NATIONAL WEATHER SERVICE INDIANAPOLIS IN
500 PM EDT SAT MAY 30 2015

NOTE: "FAIR" INDICATES FEW OR NO CLOUDS BELOW 12,000 FEET WITH NO
SIGNIFICANT WEATHER AND/OR OBSTRUCTIONS TO VISIBILITY.

* - STATION DOES NOT REPORT WEATHER SUCH AS PRECIPITATION OR FOG.

+ - STATION NOT QUALITY CONTROLLED BY THE NATIONAL WEATHER SERVICE.
    USE DATA WITH CAUTION...ESPECIALLY DEWPOINT AND RELATIVE
    HUMIDITY OBSERVATIONS.

INZ001>003-010>013-019-020-302200-
NORTHWEST INDIANA

CITY           SKY/WX    TMP DP  RH WIND       PRES   REMARKS
GARY /AIRPORT/ DRIZZLE   48  48 100 N20       30.06R
KNOX *+        CLOUDY    55  55 100 N10       29.97R
LA PORTE +     HVY RAIN  55  55 100 N9        29.99S
MICHIGAN CITY+ MIX PCPN  46  46 100 N8        30.01F
MONTICELLO +   LGT RAIN  67  67 100 SE3       29.93R
RENSSELAER +   CLOUDY    55  55 100 NW12G22   29.96R
VALPARAISO     RAIN      50  48  93 N12       30.00R FOG

$$

LMZ046-743>745-302200-
SOUTHERN LAKE MICHIGAN

STATION/POSITION TIME  TEMP    WIND        PRES    WAVE
                       AIR SEA DIR/SP/G            HT
                 (UTC) (F)     (DEG/KT/KT) (MB)    (FT)
BURNS HARBOR     2100   47     360/ 14/ 16 1017.3S
MICHIGAN CITY    2100   47     360/ 15/ 17   N/A
5NW MICH CITY    2100   47 56   20/ 14/ 17   N/A     5

$$

INZ004-005-014>016-021>024-302200-
NORTH CENTRAL INDIANA

CITY           SKY/WX    TMP DP  RH WIND       PRES   REMARKS
ELKHART        CLOUDY    72  66  83 N9G16     29.95F
GOSHEN         RAIN      67  65  93 SW6       29.94S VSB 1
LOGANSPORT +   LGT RAIN  68  64  88 SE6       29.94R
PERU/GRISSOM   MOSUNNY   71  67  87 S3        29.93S
ROCHESTER +    CLOUDY    72  68  88 S10       29.93F
SOUTH BEND     LGT RAIN  66  64  93 N14       29.96S
WARSAW +       CLOUDY    68  66  94 CALM      29.93F

$$

INZ006>009-017-018-025>027-302200-
NORTHEAST INDIANA

CITY           SKY/WX    TMP DP  RH WIND       PRES   REMARKS
ANGOLA *+      PTSUNNY   73  70  88 S6        29.93F
AUBURN +       CLOUDY    73  68  83 CALM      29.95F
FORT WAYNE     CLOUDY    70  67  90 SW5       29.94F
HUNTINGTON +   CLOUDY    72  68  89 SW3       29.94F

$$

INZ028-029-035-036-043>045-051>053-302200-
WEST CENTRAL INDIANA

CITY           SKY/WX    TMP DP  RH WIND       PRES   REMARKS
CRAWFORDSVL +  CLOUDY    66  62  88 SE6       29.91R
GREENCASTLE +  PTSUNNY   68  63  83 W3        29.94F
LAFAYETTE      RAIN      67  66  97 CALM      29.94S FOG
TERRE HAUTE    MOSUNNY   78  69  73 W8        29.91F

$$

INZ030>032-037>040-046>048-054>057-064-065-302200-
CENTRAL INDIANA

CITY           SKY/WX    TMP DP  RH WIND       PRES   REMARKS
CP ATTERBURY + MOSUNNY   81  70  69 S8        29.92F
COLUMBUS       PTSUNNY   82  66  57 S18G24    29.93F
FISHERS *+     CLOUDY    77  72  83 NW13      29.91F
FRANKFORT +    RAIN      67  67 100 S3        29.99R
GREENWOOD *+   PTSUNNY   77  66  69 SW9       29.92F
INDIANAPOLIS   PTSUNNY   80  65  59 SW15      29.91S
-EAGLE CREEK   PTSUNNY   78  68  71 W15G23    29.93R
KOKOMO *+      CLOUDY    73  66  78 E5        29.94S
MARION +       CLOUDY    74  68  80 CALM      29.95F
MT COMFORT *+  MOSUNNY   82  57  42 S14G22    29.92F
SHELBYVILLE    MOSUNNY   85  67  54 S22G31    29.92F
ZIONSVILLE +   CLOUDY    73  65  76 W16       29.96R

$$

INZ033-034-041-042-049-050-058-059-302200-
EAST CENTRAL INDIANA

CITY           SKY/WX    TMP DP  RH WIND       PRES   REMARKS
MUNCIE         LGT RAIN  72  67  84 E5        29.95F

$$

INZ060-061-067>069-081>083-085>088-302200-
SOUTHWEST INDIANA

CITY           SKY/WX    TMP DP  RH WIND       PRES   REMARKS
EVANSVILLE     PTSUNNY   80  69  69 SW9       29.90F
HUNTINGBURG *+ PTSUNNY   82  66  57 S22       29.92F
WASHINGTON +   MOSUNNY   83  60  44 S15       29.90F

$$

INZ062-063-066-070>080-084-089>092-302200-
SOUTH CENTRAL AND SOUTHEAST INDIANA

CITY           SKY/WX    TMP DP  RH WIND       PRES   REMARKS
BLOOMINGTON    MOSUNNY   81  70  69 S12       29.93F
MADISON *+     MOSUNNY   79  68  69 S9        29.98F
NORTH VERNON + MOSUNNY   82  68  61 SE7G17    29.95F
SEYMOUR +      MOSUNNY   88  66  48 S15G25    29.93F

$$




USA.gov is the U.S. government's official web portal to all federal, state and local government web resources and services.